Regional Weather Roundup
Issued by NWS

Home | Current Version | Previous Version | Text Only | Print | Product List | Glossary On
Versions: 1 2 3 4 5 6 7 8 9 10 11 12 13 14 15 16 17 18 19 20 21 22 23 24 25 26 27 28 29 30 31 32 33 34 35 36 37 38 39 40 41 42 43 44 45 46 47 48 49 50
000
ASUS44 KOUN 220810
RWROK

WEATHER ROUNDUP FOR OKLAHOMA
NATIONAL WEATHER SERVICE NORMAN OK
200 AM CST WED NOV 22 2017

NOTE: "FAIR" INDICATES FEW OR NO CLOUDS BELOW 12,000 FEET WITH NO
      SIGNIFICANT WEATHER AND/OR OBSTRUCTIONS TO VISIBILITY.

OKZ001>007-009>012-014-015-017-220900-
NORTHWEST OKLAHOMA AND THE PANHANDLE

CITY           SKY/WX    TMP DP  RH WIND       PRES   REMARKS
GAGE           CLOUDY    24  17  74 W5        30.40R WCI  18
GUYMON         CLOUDY    28  23  81 W5        30.38F WCI  23
ENID/WOODRING  CLOUDY    30  18  59 N7        30.39F WCI  23
$$

OKZ016-021>023-033>039-044-045-220900-
SOUTHWEST OKLAHOMA

CITY           SKY/WX    TMP DP  RH WIND       PRES   REMARKS
LAWTON/REGL    CLEAR     37  20  50 N3        30.37R
LAWTON/FT SILL CLEAR     35  22  58 N8        30.35R WCI  29
FREDERICK      CLEAR     36  20  52 N13       30.35R WCI  27
CLINTON        CLEAR     32  18  56 N8        30.38R WCI  25
HOBART         CLEAR     34  18  52 N10       30.40R WCI  26
ALTUS AFB      CLEAR     34  16  47 N10       30.39R WCI  26
$$

OKZ018>020-024>031-220900-
CENTRAL OKLAHOMA

CITY           SKY/WX    TMP DP  RH WIND       PRES   REMARKS
OKLAHOMA CITY  PTCLDY    34  13  41 N15       30.37R WCI  24
OKC/WILEY POST CLEAR     33  15  47 N14       30.38R WCI  23
OKC/TINKER AFB CLEAR     33  13  44 N14       30.37R WCI  23
STILLWATER     CLOUDY    30  16  56 N8        30.41R WCI  22
GUTHRIE        CLOUDY    31  15  52 N7        30.40R WCI  24
$$

OKZ008-013-054>072-220900-
NORTHEAST OKLAHOMA

CITY           SKY/WX    TMP DP  RH WIND       PRES   REMARKS
TULSA          CLEAR     30  19  63 N10       30.41R WCI  21
TULSA/JONES    CLEAR     34  17  50 N13G23    30.40R WCI  25
PONCA CITY     CLOUDY    27  15  61 NE8       30.42R WCI  19
BARTLESVILLE   FLURRIES  29  15  56 VRB3      30.44R
MUSKOGEE       CLEAR     33  20  58 N15G24    30.36R WCI  23
$$

OKZ032-040>043-046>053-073>077-220900-
SOUTH CENTRAL/SOUTHEAST OKLAHOMA

CITY           SKY/WX    TMP DP  RH WIND       PRES   REMARKS
ARDMORE/DWNTWN CLEAR     41  10  28 NE6G20    30.33R
MCALESTER      CLEAR     40  18  41 N15G22    30.33R WCI  32
$$





USA.gov is the U.S. government's official web portal to all federal, state and local government web resources and services.